| time (UTC) | temp C | wind direction | speed KPH | gust KPH | rain 1hr cm | rain 24hr cm | rain mn cm | humidity % | barometer mb |
| 20260906113130 | 13 | 115 | 0.0 | 0.0 | 0.00 | 0.00 | 0.00 | 95 | 1020.3 |
| 20260906112632 | 13 | 115 | 0.0 | 0.0 | 0.00 | 0.00 | 0.00 | 95 | 1020.3 |
| 20260906112131 | 13 | 115 | 0.0 | 0.0 | 0.00 | 0.00 | 0.00 | 95 | 1020.2 |
| 20260906111633 | 13 | 115 | 0.0 | 0.0 | 0.00 | 0.00 | 0.00 | 94 | 1020.3 |
| 20260906111130 | 13 | 115 | 0.0 | 1.6 | 0.00 | 0.00 | 0.00 | 94 | 1020.3 |
| 20260906110630 | 13 | 115 | 0.0 | 1.6 | 0.00 | 0.00 | 0.00 | 94 | 1020.3 |
| 20260906110130 | 13 | 115 | 0.0 | 1.6 | 0.00 | 0.00 | 0.00 | 94 | 1020.4 |
| 20260906105624 | 13 | 115 | 0.0 | 0.0 | 0.00 | 0.00 | 0.00 | 94 | 1020.3 |
| 20260906105120 | 13 | 115 | 0.0 | 1.6 | 0.00 | 0.00 | 0.00 | 94 | 1020.2 |
| 20260906104108 | 13 | 115 | 0.0 | 1.6 | 0.00 | 0.00 | 0.00 | 93 | 1020.1 |
| 20260906103602 | 14 | 115 | 0.0 | 1.6 | 0.00 | 0.00 | 0.00 | 93 | 1020.0 |
| 20260906102549 | 14 | 115 | 0.0 | 3.2 | 0.00 | 0.00 | 0.00 | 93 | 1020.1 |
| 20260906102044 | 14 | 115 | 0.0 | 4.8 | 0.00 | 0.00 | 0.00 | 93 | 1020.1 |
| 20260906101536 | 14 | 115 | 1.6 | 4.8 | 0.00 | 0.00 | 0.00 | 93 | 1020.2 |
| 20260906101032 | 14 | 115 | 1.6 | 3.2 | 0.00 | 0.00 | 0.00 | 93 | 1020.1 |
| 20260906100525 | 14 | 116 | 0.0 | 3.2 | 0.00 | 0.00 | 0.00 | 93 | 1020.0 |
| 20260906100020 | 14 | 116 | 0.0 | 4.8 | 0.00 | 0.00 | 0.00 | 93 | 1020.1 |
| 20260906095514 | 14 | 116 | 1.6 | 6.4 | 0.00 | 0.00 | 0.00 | 93 | 1019.9 |
| 20260906094502 | 14 | 79 | 0.0 | 4.8 | 0.00 | 0.00 | 0.00 | 93 | 1019.8 |
| 20260906093955 | 14 | 71 | 0.0 | 4.8 | 0.00 | 0.00 | 0.00 | 93 | 1019.8 |
| 20260906093449 | 14 | 71 | 1.6 | 4.8 | 0.00 | 0.00 | 0.00 | 93 | 1019.9 |
| 20260906092943 | 14 | 71 | 1.6 | 4.8 | 0.00 | 0.00 | 0.00 | 93 | 1019.8 |
| 20260906092437 | 14 | 71 | 1.6 | 4.8 | 0.00 | 0.00 | 0.00 | 93 | 1019.8 |
| 20260906091931 | 14 | 71 | 0.0 | 4.8 | 0.00 | 0.00 | 0.00 | 93 | 1019.8 |
| 20260906091426 | 14 | 69 | 0.0 | 4.8 | 0.00 | 0.00 | 0.00 | 93 | 1019.9 |
| 20260906090920 | 14 | 70 | 1.6 | 4.8 | 0.00 | 0.00 | 0.00 | 93 | 1019.8 |
| 20260906090413 | 14 | 70 | 1.6 | 4.8 | 0.00 | 0.00 | 0.00 | 93 | 1019.8 |
| 20260906085907 | 14 | 70 | 1.6 | 4.8 | 0.00 | 0.00 | 0.00 | 94 | 1019.9 |
| 20260906085402 | 14 | 70 | 0.0 | 3.2 | 0.00 | 0.00 | 0.00 | 94 | 1019.8 |
| 20260906083843 | 15 | 67 | 0.0 | 3.2 | 0.00 | 0.00 | 0.00 | 94 | 1019.6 |
| 20260906083336 | 15 | 67 | 0.0 | 0.0 | 0.00 | 0.00 | 0.00 | 93 | 1019.5 |
| 20260906082832 | 15 | 67 | 0.0 | 0.0 | 0.00 | 0.00 | 0.00 | 93 | 1019.5 |
| 20260906082325 | 15 | 67 | 0.0 | 0.0 | 0.00 | 0.00 | 0.00 | 93 | 1019.5 |
| 20260906081820 | 15 | 67 | 0.0 | 0.0 | 0.00 | 0.00 | 0.00 | 93 | 1019.4 |
| 20260906081313 | 15 | 67 | 0.0 | 0.0 | 0.00 | 0.00 | 0.00 | 93 | 1019.4 |
| 20260906080804 | 15 | 67 | 0.0 | 1.6 | 0.00 | 0.00 | 0.00 | 92 | 1019.4 |
| 20260906080258 | 15 | 67 | 0.0 | 1.6 | 0.00 | 0.00 | 0.00 | 92 | 1019.3 |
| 20260906075754 | 15 | 67 | 0.0 | 0.0 | 0.00 | 0.00 | 0.00 | 92 | 1019.1 |
| 20260906074235 | 15 | 67 | 0.0 | 1.6 | 0.00 | 0.00 | 0.00 | 91 | 1019.0 |
| 20260906073729 | 15 | 67 | 0.0 | 3.2 | 0.00 | 0.00 | 0.00 | 91 | 1018.9 |
| 20260906072212 | 15 | 64 | 0.0 | 0.0 | 0.00 | 0.00 | 0.00 | 91 | 1018.8 |
| 20260906071200 | 16 | 64 | 0.0 | 0.0 | 0.00 | 0.00 | 0.00 | 91 | 1018.9 |
| 20260906070653 | 16 | 64 | 0.0 | 0.0 | 0.00 | 0.00 | 0.00 | 90 | 1019.0 |
| 20260906070148 | 16 | 64 | 0.0 | 0.0 | 0.00 | 0.00 | 0.00 | 90 | 1019.1 |
| 20260906065642 | 16 | 64 | 0.0 | 0.0 | 0.00 | 0.00 | 0.00 | 90 | 1019.1 |
| 20260906065136 | 16 | 64 | 0.0 | 0.0 | 0.00 | 0.00 | 0.00 | 89 | 1019.1 |
| 20260906064629 | 16 | 64 | 0.0 | 0.0 | 0.00 | 0.00 | 0.00 | 89 | 1019.3 |
| 20260906064124 | 16 | 64 | 0.0 | 0.0 | 0.00 | 0.00 | 0.00 | 88 | 1019.1 |
| 20260906063617 | 16 | 64 | 0.0 | 0.0 | 0.00 | 0.00 | 0.00 | 88 | 1019.1 |
| 20260906063112 | 16 | 64 | 0.0 | 0.0 | 0.00 | 0.00 | 0.00 | 87 | 1019.1 |
| 20260906062604 | 17 | 64 | 0.0 | 1.6 | 0.00 | 0.00 | 0.00 | 87 | 1019.1 |
| 20260906062059 | 17 | 64 | 0.0 | 1.6 | 0.00 | 0.00 | 0.00 | 87 | 1019.0 |
| 20260906061553 | 17 | 64 | 0.0 | 6.4 | 0.00 | 0.00 | 0.00 | 86 | 1019.0 |
| 20260906061047 | 17 | 64 | 1.6 | 6.4 | 0.00 | 0.00 | 0.00 | 86 | 1019.0 |
| 20260906060036 | 17 | 61 | 3.2 | 9.7 | 0.00 | 0.00 | 0.00 | 86 | 1018.9 |
| 20260906055529 | 17 | 96 | 3.2 | 9.7 | 0.00 | 0.00 | 0.00 | 86 | 1018.9 |
| 20260906055025 | 17 | 69 | 3.2 | 9.7 | 0.00 | 0.00 | 0.00 | 86 | 1018.9 |
| 20260906054518 | 17 | 67 | 1.6 | 12.9 | 0.00 | 0.00 | 0.00 | 86 | 1018.8 |
| 20260906054012 | 17 | 71 | 3.2 | 12.9 | 0.00 | 0.00 | 0.00 | 86 | 1018.8 |
| 20260906053506 | 17 | 71 | 3.2 | 8.0 | 0.00 | 0.00 | 0.00 | 86 | 1018.8 |
| 20260906052453 | 17 | 68 | 1.6 | 9.7 | 0.00 | 0.00 | 0.00 | 87 | 1018.7 |
| 20260906051947 | 17 | 106 | 1.6 | 14.5 | 0.00 | 0.00 | 0.00 | 87 | 1018.9 |
| 20260906051442 | 17 | 98 | 1.6 | 14.5 | 0.00 | 0.00 | 0.00 | 87 | 1018.9 |
| 20260906050936 | 18 | 112 | 1.6 | 4.8 | 0.00 | 0.00 | 0.00 | 87 | 1018.9 |
| 20260906050430 | 18 | 156 | 0.0 | 4.8 | 0.00 | 0.00 | 0.00 | 87 | 1018.8 |
| 20260906045921 | 18 | 80 | 1.6 | 4.8 | 0.00 | 0.00 | 0.00 | 87 | 1018.7 |
| 20260906045418 | 18 | 80 | 1.6 | 8.0 | 0.00 | 0.00 | 0.00 | 88 | 1018.7 |
| 20260906044911 | 18 | 76 | 1.6 | 8.0 | 0.00 | 0.00 | 0.00 | 88 | 1018.7 |
| 20260906043900 | 18 | 109 | 1.6 | 4.8 | 0.00 | 0.00 | 0.00 | 89 | 1018.7 |
| 20260906043353 | 18 | 110 | 1.6 | 4.8 | 0.00 | 0.00 | 0.00 | 89 | 1018.6 |
| 20260906042847 | 18 | 81 | 1.6 | 6.4 | 0.00 | 0.00 | 0.00 | 90 | 1018.5 |
| 20260906041836 | 18 | 57 | 1.6 | 8.0 | 0.00 | 0.00 | 0.00 | 90 | 1018.3 |
| 20260906041330 | 18 | 86 | 1.6 | 6.4 | 0.00 | 0.00 | 0.00 | 90 | 1018.3 |
| 20260906040823 | 18 | 96 | 1.6 | 4.8 | 0.00 | 0.00 | 0.00 | 90 | 1018.4 |
| 20260906040316 | 18 | 97 | 0.0 | 4.8 | 0.00 | 0.00 | 0.00 | 91 | 1018.4 |
| 20260906035810 | 18 | 95 | 0.0 | 6.4 | 0.00 | 0.00 | 0.00 | 91 | 1018.3 |
| 20260906035306 | 18 | 94 | 0.0 | 6.4 | 0.00 | 0.00 | 0.00 | 91 | 1018.3 |
| 20260906034804 | 18 | 95 | 0.0 | 3.2 | 0.00 | 0.00 | 0.00 | 91 | 1018.3 |
| 20260906034304 | 19 | 95 | 0.0 | 3.2 | 0.00 | 0.00 | 0.00 | 91 | 1018.3 |
| 20260906033803 | 19 | 96 | 0.0 | 1.6 | 0.00 | 0.00 | 0.00 | 91 | 1018.1 |
| 20260906033302 | 19 | 96 | 0.0 | 3.2 | 0.00 | 0.00 | 0.00 | 91 | 1018.1 |
| 20260906032800 | 19 | 96 | 0.0 | 3.2 | 0.00 | 0.00 | 0.00 | 91 | 1018.0 |
| 20260906032258 | 19 | 96 | 0.0 | 3.2 | 0.00 | 0.00 | 0.00 | 92 | 1018.1 |
| 20260906031757 | 19 | 96 | 0.0 | 3.2 | 0.00 | 0.00 | 0.00 | 92 | 1018.0 |
| 20260906031258 | 19 | 96 | 0.0 | 1.6 | 0.00 | 0.00 | 0.00 | 93 | 1018.1 |
| 20260906030757 | 19 | 96 | 0.0 | 4.8 | 0.00 | 0.00 | 0.00 | 93 | 1018.1 |
| 20260906030254 | 19 | 95 | 0.0 | 4.8 | 0.00 | 0.00 | 0.00 | 94 | 1018.1 |
| 20260906025255 | 20 | 64 | 0.0 | 3.2 | 0.00 | 0.00 | 0.00 | 95 | 1018.1 |
| 20260906024753 | 20 | 64 | 0.0 | 1.6 | 0.00 | 0.00 | 0.00 | 96 | 1018.1 |
| 20260906024253 | 20 | 64 | 0.0 | 3.2 | 0.00 | 0.00 | 0.00 | 96 | 1018.0 |
| 20260906023752 | 20 | 63 | 0.0 | 3.2 | 0.00 | 0.00 | 0.00 | 96 | 1018.0 |
| 20260906023249 | 20 | 63 | 0.0 | 0.0 | 0.00 | 0.00 | 0.00 | 96 | 1017.9 |
| 20260906022747 | 20 | 63 | 0.0 | 1.6 | 0.00 | 0.00 | 0.00 | 97 | 1017.9 |
| 20260906022248 | 20 | 63 | 0.0 | 3.2 | 0.00 | 0.00 | 0.00 | 97 | 1017.8 |
| 20260906021744 | 20 | 63 | 0.0 | 3.2 | 0.00 | 0.00 | 0.00 | 97 | 1017.8 |
| 20260906021244 | 20 | 63 | 0.0 | 0.0 | 0.00 | 0.00 | 0.00 | 97 | 1017.7 |
| 20260906020739 | 20 | 63 | 0.0 | 0.0 | 0.00 | 0.00 | 0.00 | 97 | 1017.7 |
| 20260906020232 | 21 | 63 | 0.0 | 0.0 | 0.00 | 0.00 | 0.00 | 97 | 1017.5 |
| 20260906015727 | 21 | 63 | 0.0 | 0.0 | 0.00 | 0.00 | 0.00 | 97 | 1017.5 |
| 20260906014715 | 21 | 63 | 0.0 | 4.8 | 0.00 | 0.00 | 0.00 | 97 | 1017.6 |
| 20260906013701 | 21 | 76 | 0.0 | 3.2 | 0.00 | 0.00 | 0.00 | 97 | 1017.6 |
| 20260906013156 | 21 | 76 | 0.0 | 0.0 | 0.00 | 0.00 | 0.00 | 96 | 1017.5 |
| 20260906012649 | 21 | 76 | 0.0 | 0.0 | 0.00 | 0.00 | 0.00 | 96 | 1017.6 |
| 20260906012144 | 21 | 76 | 0.0 | 0.0 | 0.00 | 0.00 | 0.00 | 96 | 1017.5 |
| 20260906011638 | 21 | 76 | 0.0 | 1.6 | 0.00 | 0.00 | 0.00 | 96 | 1017.4 |
| 20260906011132 | 21 | 76 | 0.0 | 1.6 | 0.00 | 0.00 | 0.00 | 95 | 1017.5 |
| 20260906005615 | 21 | 76 | 0.0 | 0.0 | 0.00 | 0.00 | 0.00 | 95 | 1017.0 |
| 20260906004602 | 21 | 76 | 0.0 | 3.2 | 0.00 | 0.00 | 0.00 | 94 | 1017.0 |
| 20260906004056 | 21 | 76 | 0.0 | 3.2 | 0.00 | 0.00 | 0.00 | 94 | 1017.0 |
| 20260906003550 | 21 | 76 | 0.0 | 3.2 | 0.00 | 0.00 | 0.00 | 94 | 1017.0 |
| 20260906003045 | 21 | 76 | 0.0 | 3.2 | 0.00 | 0.00 | 0.00 | 93 | 1017.0 |
| 20260906002537 | 21 | 76 | 0.0 | 4.8 | 0.00 | 0.00 | 0.00 | 93 | 1017.0 |
| 20260906001527 | 22 | 76 | 0.0 | 3.2 | 0.00 | 0.00 | 0.00 | 91 | 1016.9 |
| 20260906000514 | 22 | 71 | 0.0 | 0.0 | 0.00 | 0.00 | 0.00 | 89 | 1017.0 |
| 20260906000008 | 22 | 71 | 0.0 | 0.0 | 0.00 | 0.00 | 0.00 | 88 | 1016.9 |
| 20260905235501 | 22 | 71 | 0.0 | 0.0 | 0.00 | 0.00 | 0.00 | 88 | 1016.9 |
| 20260905234955 | 22 | 71 | 0.0 | 0.0 | 0.00 | 0.00 | 0.00 | 87 | 1017.0 |
| 20260905233945 | 23 | 71 | 0.0 | 4.8 | 0.00 | 0.00 | 0.00 | 85 | 1016.9 |
| 20260905233437 | 23 | 71 | 0.0 | 4.8 | 0.00 | 0.00 | 0.00 | 85 | 1016.8 |
| 20260905232932 | 23 | 71 | 0.0 | 4.8 | 0.00 | 0.00 | 0.00 | 85 | 1016.8 |
| 20260905232427 | 23 | 71 | 1.6 | 4.8 | 0.00 | 0.00 | 0.00 | 85 | 1016.8 |
| 20260905231921 | 23 | 71 | 3.2 | 9.7 | 0.00 | 0.00 | 0.00 | 84 | 1016.7 |
| 20260905231415 | 23 | 71 | 3.2 | 9.7 | 0.00 | 0.00 | 0.00 | 83 | 1016.8 |
| 20260905230908 | 23 | 60 | 3.2 | 9.7 | 0.00 | 0.00 | 0.00 | 84 | 1016.8 |
| 20260905225857 | 23 | 61 | 4.8 | 11.3 | 0.00 | 0.00 | 0.00 | 84 | 1016.8 |
| 20260905225351 | 23 | 55 | 4.8 | 12.9 | 0.00 | 0.00 | 0.00 | 83 | 1016.7 |
| 20260905224843 | 23 | 54 | 4.8 | 14.5 | 0.00 | 0.00 | 0.00 | 83 | 1016.6 |
| 20260905224338 | 23 | 64 | 4.8 | 14.5 | 0.00 | 0.00 | 0.00 | 85 | 1016.7 |
| 20260905223832 | 23 | 77 | 4.8 | 12.9 | 0.00 | 0.00 | 0.00 | 85 | 1016.7 |
| 20260905223327 | 23 | 31 | 4.8 | 16.1 | 0.00 | 0.00 | 0.00 | 87 | 1016.6 |
| 20260905222821 | 23 | 56 | 6.4 | 16.1 | 0.00 | 0.00 | 0.00 | 87 | 1016.6 |
| 20260905221808 | 23 | 51 | 3.2 | 12.9 | 0.00 | 0.00 | 0.00 | 90 | 1016.6 |
| 20260905221303 | 23 | 59 | 1.6 | 9.7 | 0.00 | 0.00 | 0.00 | 91 | 1016.5 |
| 20260905220756 | 23 | 58 | 1.6 | 8.0 | 0.00 | 0.00 | 0.00 | 91 | 1016.4 |
| 20260905220251 | 23 | 58 | 3.2 | 8.0 | 0.00 | 0.00 | 0.00 | 91 | 1016.3 |
| 20260905215744 | 22 | 59 | 3.2 | 9.7 | 0.00 | 0.00 | 0.00 | 91 | 1016.2 |
| 20260905215237 | 22 | 57 | 4.8 | 14.5 | 0.00 | 0.00 | 0.00 | 91 | 1016.2 |
| 20260905214733 | 22 | 54 | 6.4 | 14.5 | 0.00 | 0.00 | 0.00 | 91 | 1016.2 |
| 20260905214226 | 22 | 65 | 8.0 | 16.1 | 0.00 | 0.00 | 0.00 | 92 | 1016.2 |
| 20260905213721 | 22 | 44 | 8.0 | 17.7 | 0.00 | 0.00 | 0.00 | 93 | 1016.2 |
| 20260905213215 | 22 | 60 | 6.4 | 17.7 | 0.00 | 0.00 | 0.00 | 94 | 1016.1 |
| 20260905212709 | 22 | 44 | 6.4 | 14.5 | 0.00 | 0.00 | 0.00 | 96 | 1016.0 |
| 20260905212203 | 21 | 55 | 6.4 | 14.5 | 0.00 | 0.00 | 0.00 | 96 | 1016.0 |
| 20260905211656 | 21 | 55 | 6.4 | 12.9 | 0.00 | 0.00 | 0.00 | 97 | 1016.1 |
| 20260905210644 | 21 | 59 | 3.2 | 12.9 | 0.00 | 0.00 | 0.00 | 98 | 1016.1 |
| 20260905210138 | 21 | 100 | 3.2 | 12.9 | 0.00 | 0.00 | 0.00 | 98 | 1016.1 |
| 20260905205633 | 21 | 82 | 3.2 | 8.0 | 0.00 | 0.00 | 0.00 | 98 | 1016.0 |
| 20260905205127 | 21 | 65 | 3.2 | 8.0 | 0.00 | 0.00 | 0.00 | 98 | 1016.1 |
| 20260905204621 | 21 | 92 | 3.2 | 8.0 | 0.00 | 0.00 | 0.00 | 98 | 1016.1 |
| 20260905204115 | 21 | 58 | 3.2 | 8.0 | 0.00 | 0.00 | 0.00 | 98 | 1016.2 |
| 20260905203608 | 21 | 67 | 3.2 | 8.0 | 0.00 | 0.00 | 0.00 | 97 | 1016.3 |
| 20260905203102 | 21 | 59 | 3.2 | 8.0 | 0.00 | 0.00 | 0.00 | 97 | 1016.4 |
| 20260905202556 | 21 | 63 | 4.8 | 14.5 | 0.00 | 0.00 | 0.00 | 97 | 1016.5 |
| 20260905202049 | 21 | 73 | 6.4 | 14.5 | 0.00 | 0.00 | 0.00 | 96 | 1016.4 |
| 20260905201543 | 21 | 53 | 6.4 | 12.9 | 0.00 | 0.00 | 0.00 | 96 | 1016.5 |
| 20260905201039 | 21 | 65 | 6.4 | 14.5 | 0.00 | 0.00 | 0.00 | 96 | 1016.6 |
| 20260905200531 | 21 | 54 | 6.4 | 14.5 | 0.00 | 0.00 | 0.00 | 96 | 1016.7 |
| 20260905200027 | 21 | 53 | 6.4 | 12.9 | 0.00 | 0.00 | 0.00 | 96 | 1016.7 |
| 20260905195013 | 21 | 70 | 4.8 | 12.9 | 0.00 | 0.00 | 0.00 | 96 | 1016.6 |
| 20260905194508 | 21 | 36 | 4.8 | 14.5 | 0.00 | 0.00 | 0.00 | 96 | 1016.6 |
| 20260905194003 | 21 | 48 | 4.8 | 14.5 | 0.00 | 0.00 | 0.00 | 96 | 1016.6 |
| 20260905193455 | 20 | 70 | 6.4 | 17.7 | 0.00 | 0.00 | 0.00 | 96 | 1016.7 |
| 20260905192950 | 21 | 63 | 6.4 | 17.7 | 0.00 | 0.00 | 0.00 | 95 | 1016.8 |
| 20260905192445 | 21 | 17 | 8.0 | 16.1 | 0.00 | 0.00 | 0.00 | 95 | 1016.8 |
| 20260905191944 | 21 | 46 | 8.0 | 17.7 | 0.00 | 0.00 | 0.00 | 95 | 1016.9 |
| 20260905191444 | 21 | 57 | 8.0 | 17.7 | 0.00 | 0.00 | 0.00 | 94 | 1016.9 |
| 20260905190941 | 21 | 60 | 8.0 | 22.5 | 0.00 | 0.00 | 0.00 | 93 | 1016.8 |
| 20260905190441 | 21 | 39 | 8.0 | 22.5 | 0.00 | 0.00 | 0.00 | 93 | 1016.8 |
| 20260905185942 | 21 | 44 | 6.4 | 16.1 | 0.00 | 0.00 | 0.00 | 93 | 1016.8 |
| 20260905184941 | 21 | 65 | 6.4 | 17.7 | 0.00 | 0.00 | 0.00 | 92 | 1016.7 |
| 20260905183936 | 22 | 69 | 8.0 | 19.3 | 0.00 | 0.00 | 0.00 | 92 | 1016.9 |
| 20260905183436 | 22 | 71 | 6.4 | 16.1 | 0.00 | 0.00 | 0.00 | 92 | 1016.8 |
| 20260905182936 | 22 | 29 | 6.4 | 14.5 | 0.00 | 0.00 | 0.00 | 92 | 1016.8 |
| 20260905181936 | 22 | 42 | 6.4 | 14.5 | 0.00 | 0.00 | 0.00 | 92 | 1016.7 |
| 20260905180936 | 22 | 65 | 6.4 | 14.5 | 0.00 | 0.00 | 0.00 | 91 | 1016.6 |
| 20260905180430 | 22 | 68 | 4.8 | 12.9 | 0.00 | 0.00 | 0.00 | 92 | 1016.6 |
| 20260905175925 | 22 | 51 | 4.8 | 11.3 | 0.00 | 0.00 | 0.00 | 92 | 1016.7 |
| 20260905175418 | 22 | 70 | 6.4 | 12.9 | 0.00 | 0.00 | 0.00 | 92 | 1016.7 |
| 20260905174918 | 22 | 59 | 4.8 | 12.9 | 0.00 | 0.00 | 0.00 | 91 | 1016.8 |
| 20260905174420 | 22 | 65 | 3.2 | 12.9 | 0.00 | 0.00 | 0.00 | 92 | 1016.8 |
| 20260905173920 | 22 | 67 | 3.2 | 9.7 | 0.00 | 0.00 | 0.00 | 92 | 1016.8 |
| 20260905173419 | 22 | 71 | 3.2 | 12.9 | 0.00 | 0.00 | 0.00 | 92 | 1016.8 |
| 20260905172916 | 22 | 72 | 3.2 | 12.9 | 0.00 | 0.00 | 0.00 | 92 | 1016.7 |
| 20260905172412 | 22 | 76 | 4.8 | 12.9 | 0.00 | 0.00 | 0.00 | 92 | 1016.8 |
| 20260905171412 | 22 | 61 | 6.4 | 14.5 | 0.00 | 0.00 | 0.00 | 92 | 1016.8 |
| 20260905170912 | 22 | 65 | 4.8 | 12.9 | 0.00 | 0.00 | 0.00 | 91 | 1016.7 |
| 20260905170413 | 22 | 76 | 3.2 | 11.3 | 0.00 | 0.00 | 0.00 | 92 | 1016.7 |
| 20260905165914 | 22 | 118 | 3.2 | 11.3 | 0.00 | 0.00 | 0.00 | 92 | 1016.8 |
| 20260905165414 | 22 | 124 | 3.2 | 16.1 | 0.00 | 0.00 | 0.00 | 93 | 1016.7 |
| 20260905164915 | 22 | 74 | 4.8 | 16.1 | 0.00 | 0.00 | 0.00 | 94 | 1016.7 |
| 20260905164409 | 22 | 63 | 8.0 | 17.7 | 0.00 | 0.00 | 0.00 | 93 | 1016.6 |
| 20260905163903 | 22 | 71 | 6.4 | 17.7 | 0.00 | 0.00 | 0.00 | 92 | 1016.7 |
| 20260905163401 | 22 | 63 | 6.4 | 14.5 | 0.00 | 0.00 | 0.00 | 93 | 1016.7 |
| 20260905162902 | 22 | 53 | 6.4 | 14.5 | 0.00 | 0.00 | 0.00 | 93 | 1016.6 |
| 20260905162401 | 22 | 52 | 6.4 | 14.5 | 0.00 | 0.03 | 0.00 | 92 | 1016.6 |
| 20260905161903 | 22 | 59 | 6.4 | 14.5 | 0.00 | 0.03 | 0.00 | 93 | 1016.6 |
| 20260905161401 | 22 | 63 | 4.8 | 12.9 | 0.00 | 0.03 | 0.00 | 93 | 1016.5 |
| 20260905160901 | 22 | 51 | 4.8 | 12.9 | 0.00 | 0.05 | 0.00 | 93 | 1016.6 |
| 20260905155404 | 21 | 61 | 8.0 | 16.1 | 0.00 | 0.08 | 0.00 | 94 | 1016.6 |
| 20260905154357 | 21 | 67 | 4.8 | 14.5 | 0.00 | 0.08 | 0.00 | 96 | 1016.5 |
| 20260905153858 | 21 | 53 | 4.8 | 16.1 | 0.00 | 0.08 | 0.00 | 97 | 1016.5 |
| 20260905151358 | 21 | 74 | 3.2 | 12.9 | 0.00 | 0.28 | 0.00 | 97 | 1016.2 |
| 20260905150859 | 21 | 82 | 1.6 | 8.0 | 0.00 | 0.30 | 0.00 | 98 | 1016.4 |
| 20260905150351 | 21 | 85 | 3.2 | 9.7 | 0.00 | 0.33 | 0.00 | 98 | 1016.4 |
| 20260905145855 | 21 | 69 | 6.4 | 14.5 | 0.00 | 0.33 | 0.00 | 98 | 1016.3 |
| 20260905145353 | 21 | 57 | 6.4 | 14.5 | 0.00 | 0.33 | 0.00 | 98 | 1016.3 |
| 20260905144353 | 21 | 68 | 4.8 | 14.5 | 0.00 | 0.33 | 0.00 | 98 | 1016.4 |
| 20260905143852 | 21 | 64 | 4.8 | 11.3 | 0.00 | 0.33 | 0.00 | 98 | 1016.4 |
| 20260905143351 | 21 | 69 | 4.8 | 11.3 | 0.00 | 0.33 | 0.00 | 98 | 1016.2 |
| 20260905142854 | 21 | 58 | 6.4 | 12.9 | 0.00 | 0.33 | 0.00 | 98 | 1016.2 |
| 20260905142354 | 21 | 57 | 6.4 | 16.1 | 0.00 | 0.33 | 0.00 | 97 | 1016.1 |
| 20260905141854 | 21 | 75 | 4.8 | 16.1 | 0.00 | 0.33 | 0.00 | 97 | 1016.1 |
| 20260905141355 | 21 | 144 | 4.8 | 14.5 | 0.00 | 0.36 | 0.00 | 98 | 1016.1 |
| 20260905140853 | 21 | 82 | 4.8 | 14.5 | 0.00 | 0.36 | 0.00 | 97 | 1016.0 |
| 20260905140351 | 21 | 84 | 4.8 | 9.7 | 0.00 | 0.48 | 0.00 | 98 | 1016.0 |
| 20260905135852 | 21 | 89 | 4.8 | 14.5 | 0.00 | 0.48 | 0.00 | 98 | 1015.9 |
| 20260905134852 | 21 | 127 | 4.8 | 12.9 | 0.00 | 0.48 | 0.00 | 98 | 1015.9 |
| 20260905134353 | 21 | 96 | 4.8 | 12.9 | 0.00 | 0.48 | 0.00 | 98 | 1015.8 |
| 20260905133851 | 21 | 75 | 3.2 | 9.7 | 0.00 | 0.58 | 0.00 | 98 | 1015.8 |
| 20260905133346 | 21 | 69 | 3.2 | 9.7 | 0.00 | 0.61 | 0.00 | 98 | 1015.9 |
| 20260905132839 | 21 | 73 | 3.2 | 11.3 | 0.00 | 0.61 | 0.00 | 99 | 1015.8 |
| 20260905132333 | 21 | 101 | 4.8 | 19.3 | 0.00 | 0.61 | 0.00 | 99 | 1015.8 |
| 20260905131828 | 21 | 111 | 6.4 | 19.3 | 0.00 | 0.61 | 0.00 | 99 | 1015.8 |
| 20260905130827 | 21 | 79 | 3.2 | 14.5 | 0.00 | 0.61 | 0.00 | 99 | 1015.7 |
| 20260905125322 | 21 | 79 | 1.6 | 8.0 | 0.00 | 0.74 | 0.00 | 99 | 1015.6 |
| 20260905124820 | 21 | 74 | 3.2 | 8.0 | 0.00 | 0.84 | 0.00 | 99 | 1015.6 |
| 20260905124315 | 21 | 67 | 1.6 | 8.0 | 0.00 | 0.97 | 0.00 | 99 | 1015.5 |
| 20260905123816 | 21 | 78 | 3.2 | 12.9 | 0.00 | 0.97 | 0.00 | 99 | 1015.5 |
| 20260905123315 | 21 | 80 | 3.2 | 12.9 | 0.00 | 0.97 | 0.00 | 99 | 1015.2 |
| 20260905122813 | 21 | 64 | 3.2 | 11.3 | 0.00 | 0.97 | 0.00 | 99 | 1015.1 |
| 20260905122313 | 21 | 76 | 3.2 | 14.5 | 0.00 | 0.97 | 0.00 | 99 | 1015.1 |
| 20260905121810 | 21 | 71 | 3.2 | 16.1 | 0.00 | 0.97 | 0.00 | 99 | 1015.1 |
| 20260905121311 | 21 | 58 | 4.8 | 16.1 | 0.00 | 1.02 | 0.00 | 99 | 1015.2 |
| 20260905120812 | 21 | 90 | 4.8 | 9.7 | 0.00 | 1.02 | 0.00 | 99 | 1015.1 |
| 20260905120307 | 21 | 73 | 4.8 | 9.7 | 0.00 | 1.02 | 0.00 | 99 | 1015.1 |
| 20260905115808 | 21 | 71 | 4.8 | 12.9 | 0.00 | 1.02 | 0.00 | 99 | 1015.1 |
| 20260905115307 | 21 | 69 | 4.8 | 12.9 | 0.00 | 1.04 | 0.00 | 99 | 1015.1 |
| 20260905114810 | 21 | 83 | 1.6 | 6.4 | 0.00 | 1.04 | 0.00 | 99 | 1015.0 |
| 20260905114304 | 21 | 109 | 1.6 | 4.8 | 0.00 | 1.07 | 0.00 | 99 | 1014.9 |
| 20260905113757 | 21 | 88 | 1.6 | 6.4 | 0.00 | 1.09 | 0.00 | 99 | 1015.0 |
| 20260905113251 | 20 | 87 | 1.6 | 6.4 | 0.00 | 1.12 | 0.00 | 99 | 1014.9 |